Terug naar catalogus

DELTA 1 DEB

ActiefSSO
NORAD 7167·DEBRIS·🇺🇸 United States

Gelanceerd Nov 6, 1973 vanaf Vandenberg Space Force Base

Loading…

Volgende Passages (komende 24 uur)

TLE

VersSource: Space-Track

Epoch: Sep 14, 2026, 10:07 UTC

1 07167U 73086EF  26257.42221424  .00000265  00000-0  19029-2 0  9994
2 07167 101.9921  58.3613 0041129 343.0808  44.7863 12.55463882405099

Volg DELTA 1 DEB in realtime met AllMySat

Download on the App Store